DEIMOS-1

Last updated on Mon Jun 22 2026 00:02:51 GMT+0000 (Coordinated Universal Time)

1 35681U 09041A 26172.52729519 .00000293 00000+0 50338-4 0 9991 2 35681 97.7413 329.5665 0001932 127.1499 232.9888 14.75240261907525
UTC large
Height (km)
Speed (km/s)
/
Latitude / Longitude
Inclination (degrees)
Orbital Period (minutes)
Azimuth
Elevation
Range (km)
Doppler Factor

Next 0 passes for location: London (51.5072 / 0.1276)

No passes found over London.
DEIMOS-1